Location: Unspecified
(44.4377°N, 88.0525°W)
Time: 08:23:36
(UTC-05:00)

Okean 3 - Visible Passes

Search period start: 01 July 2016 00:00
Search period end: 11 July 2016 00:00
Orbit: 579 x 603 km, 82.5° (Epoch: 01 July)

Date Brightness Start Highest point End Pass type
(mag) Time Alt. Az. Time Alt. Az. Time Alt. Az.
01 Jul 5.3 00:04:30 10° NNE 00:07:44 20° ENE 00:08:50 18° E visible
01 Jul 4.3 01:41:10 10° NNW 01:45:09 37° W 01:45:23 37° W visible
02 Jul 4.8 00:12:36 10° NNE 00:16:23 29° ENE 00:17:11 27° E visible
02 Jul 4.9 01:49:59 10° NNW 01:53:33 25° W 01:53:44 25° W visible
03 Jul 4.2 00:20:51 10° N 00:24:59 42° ENE 00:25:33 40° E visible
03 Jul 5.4 01:59:02 10° NW 02:01:54 18° W 02:02:06 18° W visible
04 Jul 3.6 00:29:14 10° N 00:33:32 63° E 00:33:56 60° ESE visible
04 Jul 5.8 02:08:36 10° WNW 02:10:13 12° W 02:10:29 12° W visible
05 Jul 3.3 00:37:42 10° N 00:42:03 86° W 00:42:19 78° SSW visible
05 Jul 5.7 23:10:29 10° NE 23:12:51 14° ENE 23:14:09 13° E visible
06 Jul 3.7 00:46:16 10° NNW 00:50:31 56° W 00:50:43 56° WSW visible
06 Jul 5.2 23:18:18 10° NNE 23:21:33 20° ENE 23:22:34 19° E visible
07 Jul 4.4 00:54:58 10° NNW 00:58:58 37° W 00:59:08 37° W visible
07 Jul 4.7 23:26:23 10° NNE 23:30:10 29° ENE 23:30:59 27° E visible
08 Jul 5.0 01:03:47 10° NNW 01:07:20 25° W 01:07:33 25° W visible
08 Jul 4.1 23:34:38 10° N 23:38:46 42° ENE 23:39:25 39° E visible
09 Jul 5.5 01:12:49 10° NW 01:15:42 18° W 01:15:59 18° W visible
09 Jul 3.5 23:43:01 10° N 23:47:19 63° E 23:47:52 57° ESE visible
10 Jul 5.9 01:22:22 10° WNW 01:24:00 12° W 01:24:26 12° W visible
